Location: Béaulencourt
(50.0796°N, 2.8795°E)
Time: 00:24:43
(UTC+00:00)

ARIANE 6 FM1 Upper Stage - Pass Details

Date: 21 March 2026
Orbit: 524 x 604 km, 62.0° (Epoch: 13 April)

Event Time Altitude Azimuth Distance (km) Brightness Sun altitude
Exits shadow 04:21:18 14° 302° (WNW) 1,581 4.6 -14.7°
Maximum altitude 04:23:29 20° 341° (NNW) 1,288 4.5 -14.4°
Drops below altitude 10° 04:26:27 10° 29° (NNE) 1,782 5.9 -13.9°
Sets 04:29:08 0° 48° (NE) 2,667 7.4 -13.5°
